Weather Roundup
Issued by NWS Chicago, IL

Home | Current Version | Previous Version | Text Only | Print | Product List | Glossary Off
Versions: 1 2 3 4 5 6 7 8 9 10 11 12 13 14 15 16 17 18 19 20 21 22 23 24 25 26 27 28 29 30 31 32 33 34 35 36 37 38 39 40 41 42 43 44 45 46 47 48 49 50

000
NZUS59 KLOT 231908
HRRLOT

CHICAGO AREA WEATHER ROUNDUP
NATIONAL WEATHER SERVICE CHICAGO/ROMEOVILLE IL
200 PM CDT SUN APR 23 2017

NOTE: "FAIR" INDICATES FEW OR NO CLOUDS BELOW 12,000 FEET WITH NO
SIGNIFICANT WEATHER AND/OR OBSTRUCTIONS TO VISIBILITY.

* THESE STATIONS ARE NOT UNDER NWS QUALITY CONTROL. THEY ALSO MAY NOT
  REPORT WEATHER SUCH AS PRECIPITATION OR FOG.

ILZ005-006-012>014-019>023-232000-
NORTHEAST ILLINOIS

CITY           SKY/WX    TMP DP  RH WIND       PRES   REMARKS
OHARE          SUNNY     71  25  17 N6        30.06F
MIDWAY         SUNNY     68  30  24 NE8       30.07F
AURORA         SUNNY     69  31  24 VRB7      30.06F
LANSING*       SUNNY     65  35  32 NE7       30.08F
JOLIET*        SUNNY     69  34  27 E3        30.07F
WAUKEGAN       SUNNY     67  35  30 SE12      30.05F
DUPAGE AIRPORT SUNNY     71  33  24 CALM      30.05F
WHEELING       SUNNY     69  30  23 W5        30.07F
KANKAKEE*      SUNNY     71  24  17 N6G16     30.07F
MORRIS*        SUNNY     69  27  21 CALM      30.06F
LEWIS AIRPORT* SUNNY     68  36  31 NE9       30.06F
NORTHERLY ISL    N/A     58  40  51 E1          N/A
$$

WIZ051-052-058>065-066-070>072-232000-
SOUTHEAST WISCONSIN

CITY           SKY/WX    TMP DP  RH WIND       PRES   REMARKS
MILWAUKEE      MOSUNNY   48  40  73 NE25G33   30.08R
KENOSHA*       SUNNY     70  37  29 VRB3      30.06F
RACINE*        SUNNY     68  35  29 S8        30.06F
WAUKESHA       SUNNY     66  34  30 NW7       30.06F
WEST BEND      SUNNY     54  41  62 E16       30.08R
$$

INZ001>003-010>013-019-020-232000-
NORTHWEST INDIANA

CITY           SKY/WX    TMP DP  RH WIND       PRES   REMARKS
GARY*          SUNNY     64  21  19 NE5       30.10S
MICHIGAN CITY* NOT AVBL
RENSSELAER*    NOT AVBL
VALPARAISO     SUNNY     68  27  21 NE9       30.08F
$$

LMZ740>746-232000-
SOUTHERN LAKE MICHIGAN

STATION/POSITION TIME  SKY/WX   TEMP WIND        PRES    VSBY
                                AIR  DIR/SP/G
                 (UTC)          (F)  (DEG/KT/KT) (MB)    (MI)
HARRISON CRIB    1830            55  130/  9/  9   N/A
BURNHAM HARBOR   1900            59  130/  3/  7   N/A
CALUMET HARBOR   1848            57   60/  5/  7 1018.2F
BURNS HARBOR     1840            54   50/  5/  5 1019.6F
MICHIGAN CITY    1840            49   20/  4/  5   N/A
$$

ABBREVIATIONS USED IN REMARKS
   TC - TEMPERATURE IN CELSIUS
  WCI - WIND CHILL INDEX
   HX - HEAT INDEX
  VSB - VISIBILITY
$$




USA.gov is the U.S. government's official web portal to all federal, state and local government web resources and services.